Location: Rounton
(54.4000°N, 1.3500°W)
Time: 20:34:21
(UTC+00:00)

A-11 Canister half - Pass Details

Date: 09 December 2021
Orbit: 1516 x 1684 km, 47.2° (Epoch: 19 January)

Event Time Altitude Azimuth Distance (km) Brightness Sun altitude
Rises 05:19:41 0° 211° (SSW) 4,722 11.3 -23.8°
Reaches altitude 10° 05:23:06 10° 201° (SSW) 3,764 10.9 -23.3°
Maximum altitude 05:31:11 32° 143° (SE) 2,492 10.5 -22.2°
Drops below altitude 10° 05:39:30 10° 86° (E) 3,888 12.2 -21.0°
Sets 05:43:05 0° 77° (ENE) 4,898 12.8 -20.5°
